SCP
0 0 0 0 0 0 0 0 0 0 0 0 0 0 0 0 -0 -0 -0 0 0 0 0 0 0 0 0 0 0 0 0 0 0 0 0 -0 -0 -0 -0 -0 0 0 0
0 0 0 0 0 0 0 0 0 0 -0 0 0 0 0 0 0 0 0 0 0 0 0 0 0 0 0 0 0 0 0 0 0 0 0 0 0 0 0 0 0 0 0
0 0 0 0 0 0 0 0 0 -0 0 0 0 -0 0 0 0 0 0 0 0 0 0 0 0 0 0 0 0 0 0 0 0 0 0 0 0 0 0 0 0 0 0
0 0 0 0 0 0 0 0 0 0 0 0 0 0 0 0 0 0 0 0 0 0 0 0 0 0 0 0 0 0 0 0 0 0 0 0 0 0 0 0 0 0 0
0 0 0 0 0 0 0 0 0 0 0 0 0 0 0 0 0 0 0 0 0 0 0 0 0 0 0 0 0 0 0 0 0 0 0 0 0 0 0 0 0 0 0
0 0 0 0 0 0 0 0 0 0 0 0 0 0 0 0 0 0 0 0 0 0 0 0 0 0 0 0 0 0 0 0 0 0 0 0 0 0 0 0 0 0 0
0 0 0 0 0 0 0 0 0 0 0 0 0 0 0 0 0 0 0 0 0 0 0 0 0 0 0 0 0 0 0 0 0 0 0 0 0 0 0 0 0 0 0
0 0 0 0 0 0 0 0 0 0 0 0 0 0 0 0 0 0 0 0 0 0 0 0 0 0 0 0 0 0 0 0 0 0 0 0 0 0 0 0 0 0 0
0 0 0 0 0 0 0 0 0 0 0 0 0 0 0 0 0 0 0 0 0 0 0 0 0 0 0 0 0 0 0 0 0 0 0 0 0 0 0 0 0 0 0
0 0 0 0 0 0 0 0 0 0 0 0 0 0 0 0 0 0 0 0 0 0 0 0 0 0 0 0 0 0 0 0 0 0 0 0 0 0 0 0 0 0 0
0 0 0 0 0 0 0 0 0 0 0 0 0 0 0 0 0 0 0 0 0 0 0 0 0 0 0 0 0 0 0 0 0 0 0 0 0 0 0 0 0 0 0
0 0 0 0 0 0 0 0 0 0 0 0 0 0 0 0 0 0 0 0 0 0 0 0 0 0 0 0 0 0 0 0 0 0 0 0 0 0 0 0 0 0 0
0 0 0 0 0 0 0 0 0 0 0 0 0 0 0 0 0 0 0 0 0 0 0 0 0 0 0 0 0 0 0 0 0 0 0 0 0 0 0 0 0 0 0
0 0 0 0 0 0 0 0 0 0 0 0 0 0 0 0 0 0 0 0 0 0 0 0 0 0 0 0 0 0 0 0 0 0 0 0 0 0 0 0 0 0 0
0 0 0 0 0 0 0 0 0 0 0 0 0 0 0 0 0 0 0 0 0 0 0 0 0 0 0 0 0 0 0 0 0 0 0 0 0 0 0 0 0 0 0
0 0 0 0 0 0 0 0 0 0 0 0 0 0 0 0 0 0 0 0 0 0 0 0 0 0 0 0 0 0 0 0 0 0 0 0 0 0 0 0 0 0 0
0 0 0 0 0 0 0 0 0 0 0 0 0 0 0 0 0 0 0 0 0 0 0 0 0 0 0 0 0 0 0 0 0 0 0 0 0 0 0 0 0 0 0
0 0 0 0 0 0 0 0 0 0 0 0 0 0 0 0 0 0 0 0 0 0 0 0 0 0 0 0 0 0 0 0 0 0 0 0 0 0 0 0 0 0 0
0 0 0 0 0 0 0 0 0 0 0 0 0 0 0 0 0 0 0 0 0 0 0 0 0 0 0 0 0 0 0 0 0 0 0 0 0 0 0 0 0 0 0
0 0 0 0 0 0 0 0 0 0 0 0 0 0 0 0 0 0 0 0 0 0 0 0 0 0 0 0 0 0 0 0 0 0 0 0 0 0 0 0 0 0 0
0 0 0 0 0 0 0 0 0 0 0 0 0 0 0 0 0 0 0 0 0 0 0 0 0 0 0 0 0 0 0 0 0 0 0 0 0 0 0 0 0 0 0
0 0 0 0 0 0 0 0 0 0 0 0 0 0 0 0 0 0 0 0 0 0 0 0 0 0 0 0 0 0 0 0 0 0 0 0 0 0 0 0 0 0 0
0 0 0 0 0 0 0 0 0 0 0 0 0 0 0 0 0 0 0 0 0 0 0 0 0 0 0 0 0 0 0 0 0 0 0 0 0 0 0 0 0 0 0
0 0 0 0 0 0 0 0 0 0 0 0 0 0 0 0 0 0 0 0 0 0 0 0 0 0 0 0 0 0 0 0 0 0 0 0 0 0 0 0 0 0 0
0 0 0 0 0 0 0 0 0 0 0 0 0 0 0 0 0 0 0 0 0 0 0 0 0 0 0 0 0 0 0 0 0 0 0 0 0 0 0 0 0 0 0
0 0 0 0 0 0 0 0 0 0 0 0 0 0 0 0 0 0 0 0 0 0 0 0 0 0 0 0 0 0 0 0 0 0 0 0 0 0 0 0 0 0 0
Wind_Speed_500mb
5 8 3 7 11 11 11 11 14 14 12 19 12 3 8 14 11 8 10 13 16 18 19 19 19 19 19 17 13 11 10 9 10 10 14 12 15 16 6 2 5 8 3
9 6 4 5 10 11 10 11 11 15 20 13 4 11 14 14 13 12 13 15 16 17 18 18 18 18 17 15 13 10 6 5 5 7 11 18 18 12 9 7 4 2 3
9 4 4 4 8 10 11 12 15 21 21 8 8 15 16 14 13 13 13 14 17 19 19 18 17 16 15 14 12 9 5 2 2 6 14 14 22 16 16 14 11 9 7
9 6 1 3 9 14 20 22 14 8 9 10 11 15 15 15 11 12 13 14 16 17 18 17 17 16 16 14 12 10 7 3 1 6 10 10 19 17 13 16 14 14 14
11 9 8 2 9 20 21 17 10 4 2 2 3 6 11 14 14 13 12 12 13 15 16 16 17 16 15 14 13 10 7 4 3 8 11 12 25 25 21 18 19 18 17
5 8 10 4 13 18 11 7 2 4 5 6 7 6 9 12 16 15 13 13 14 15 17 17 17 17 16 16 14 14 11 8 7 8 10 21 17 21 19 18 17 17 18
6 7 12 15 21 18 10 3 4 6 9 10 10 9 5 11 14 13 13 14 15 16 18 19 19 19 18 18 16 14 12 11 12 11 12 19 18 19 19 16 16 16 16
11 10 13 15 8 5 7 8 11 13 13 12 12 12 12 10 10 12 15 16 16 17 17 19 20 20 20 19 18 16 13 12 16 12 13 20 17 19 21 18 17 17 17
20 22 15 14 13 9 13 15 15 19 17 17 15 11 11 13 11 11 14 19 19 20 20 21 22 22 22 21 20 18 16 15 17 11 21 18 17 18 21 17 15 17 16
9 8 7 15 9 13 18 24 25 20 17 18 21 17 14 14 16 15 13 18 21 22 23 24 25 25 23 23 21 19 18 17 17 15 19 15 15 17 18 16 14 15 16
11 12 15 14 17 17 16 17 20 17 14 11 10 12 17 17 18 19 18 19 22 24 25 25 26 26 25 23 20 19 18 17 17 17 17 14 13 14 14 14 13 16 15
13 19 14 13 18 22 21 21 18 18 15 14 14 16 17 17 20 22 21 20 22 24 26 27 27 26 25 25 23 19 18 17 19 18 15 13 13 13 13 11 13 14 14
20 22 26 24 23 26 25 25 23 21 19 20 21 22 20 21 22 24 23 23 26 26 28 28 28 28 26 24 22 21 19 18 18 21 17 14 13 8 5 7 11 12 12
13 19 27 26 25 26 28 26 26 24 23 24 24 23 23 24 23 24 26 26 27 28 28 29 29 28 25 23 21 20 20 19 20 22 20 16 13 9 12 13 12 11 12
9 12 26 26 25 26 26 28 27 27 27 27 28 26 27 27 27 27 27 28 28 27 28 28 28 27 26 24 23 22 21 20 20 22 21 19 18 19 17 12 11 8 9
11 16 19 29 29 30 30 31 32 33 33 32 33 32 30 30 30 30 29 29 30 29 29 28 28 27 25 24 22 23 22 22 20 20 21 18 16 15 14 10 5 5 7
16 17 18 28 35 35 34 35 35 34 36 35 37 35 33 33 33 32 32 31 31 30 30 30 29 27 26 25 24 25 22 22 22 19 23 19 18 16 13 8 1 4 8
19 22 25 27 34 39 37 38 40 39 37 38 39 38 36 35 36 35 34 35 32 31 31 30 29 28 26 25 25 24 26 24 23 22 22 23 22 17 16 9 1 5 11
21 25 28 29 30 33 40 40 42 41 41 38 39 40 39 39 38 38 39 38 35 33 33 31 30 31 29 28 28 27 26 25 24 24 24 25 24 19 17 14 5 6 12
25 27 30 32 33 30 34 44 45 43 44 42 42 41 42 43 42 43 42 42 39 37 34 33 32 30 30 29 28 28 27 25 28 28 24 24 23 25 20 13 13 16 20
29 34 36 36 34 30 29 40 40 38 42 43 44 41 42 42 44 44 44 44 42 39 36 34 32 30 27 27 27 24 24 24 29 29 35 31 25 28 32 31 23 23 30
35 36 37 36 35 32 28 33 32 35 33 34 44 49 47 45 44 46 47 47 45 42 38 35 31 28 25 23 20 22 14 19 23 26 32 35 37 31 31 29 36 38 40
36 38 39 39 39 37 33 35 38 41 41 47 51 52 50 48 46 46 47 48 47 45 39 37 34 31 28 24 22 17 11 9 14 18 19 23 31 35 37 38 40 45 50
42 43 43 44 45 43 40 38 38 38 41 38 39 45 53 50 47 47 48 48 47 46 44 40 39 37 35 31 28 26 25 31 13 12 21 24 25 33 39 41 45 49 48
43 49 48 48 47 49 46 43 44 44 45 43 44 54 59 56 51 50 51 51 51 50 47 45 41 40 37 35 30 31 33 31 30 30 37 33 25 27 33 42 50 56 53
48 54 59 61 59 56 55 52 49 51 52 52 52 57 59 58 56 55 54 53 53 52 48 44 41 38 35 34 34 32 34 32 26 21 29 41 48 54 55 57 59 60 56
Wind_Direction_500mb
111 321 218 187 172 160 168 176 176 170 157 154 165 147 337 335 344 347 345 347 354 2 5 8 7 6 5 6 15 32 51 62 72 78 66 46 37 57 49 358 35 46 5
107 323 255 200 178 166 171 172 178 171 146 138 352 335 332 334 332 327 332 339 344 353 358 6 7 5 4 6 3 9 29 54 68 51 29 9 327 354 18 20 347 301 350
126 358 209 222 178 166 161 155 147 152 120 77 359 335 328 328 323 315 322 330 337 345 351 357 4 4 3 3 1 2 359 41 98 104 78 353 329 309 297 306 322 332 288
68 127 236 155 170 159 147 143 137 98 87 80 37 9 346 318 306 304 311 322 331 337 343 348 357 357 360 1 1 359 347 344 204 208 221 171 305 302 290 290 293 292 285
126 130 113 169 160 154 162 161 156 143 103 357 28 24 355 324 310 302 302 313 327 335 339 347 346 346 349 350 356 355 347 335 256 243 268 228 249 292 307 301 294 287 277
154 147 135 166 168 184 183 202 205 297 318 323 307 325 341 331 321 316 316 321 325 330 336 341 339 340 338 338 341 341 339 327 293 282 264 266 265 284 298 306 304 295 285
166 164 163 171 160 183 207 289 287 293 300 295 289 304 311 313 315 314 314 319 326 329 332 333 333 334 334 336 334 329 321 313 299 295 278 279 294 298 302 307 306 302 295
215 195 186 190 242 261 284 287 290 296 294 292 294 309 307 298 305 316 319 317 320 323 324 326 326 327 327 328 326 325 316 299 291 295 283 279 292 290 298 305 307 299 296
181 184 212 213 270 286 294 289 296 298 285 289 284 300 302 297 301 313 322 323 324 326 328 326 326 324 324 322 320 318 311 303 294 280 266 298 293 289 298 308 307 304 301
171 190 233 285 265 279 297 315 297 287 301 298 292 284 282 300 304 309 319 319 317 319 321 322 323 321 318 315 312 310 305 295 285 279 278 285 279 284 295 300 302 302 307
251 259 275 278 296 298 307 311 303 300 295 310 296 289 291 298 305 304 309 311 313 317 319 320 319 316 314 310 304 302 299 293 284 277 290 284 279 282 287 295 294 297 307
269 271 280 274 287 291 299 299 300 297 293 281 269 275 283 289 290 293 298 304 309 314 315 317 318 316 316 312 312 305 298 291 284 282 284 279 270 269 279 273 275 293 306
272 272 283 294 294 305 303 298 296 290 286 278 278 276 283 285 285 290 300 306 311 314 318 318 317 316 312 310 307 303 296 288 281 281 286 279 270 262 150 233 296 298 302
308 301 285 292 301 306 306 302 304 297 292 286 287 289 286 284 289 295 301 306 310 313 315 316 316 313 310 307 299 295 292 287 287 282 281 279 263 197 220 276 297 304 311
292 299 300 300 301 302 300 299 295 293 288 289 289 286 286 289 292 294 298 301 303 306 309 311 311 308 308 303 298 293 289 285 278 273 276 268 250 245 259 278 289 303 320
307 310 302 298 296 298 298 294 292 289 288 287 286 284 282 283 285 286 289 293 297 303 305 307 305 303 300 296 293 291 288 285 278 269 264 260 253 244 246 261 286 333 350
254 265 278 292 299 300 296 292 290 290 288 286 282 282 282 281 281 282 284 287 293 299 300 301 301 300 297 291 290 289 287 282 275 261 258 254 247 237 232 209 241 359 359
300 300 299 294 293 298 294 290 290 288 286 284 284 286 283 280 279 280 282 286 293 293 296 299 300 299 293 288 285 283 287 284 274 262 244 251 251 224 210 193 188 345 353
326 320 316 309 302 290 293 286 281 279 282 282 282 285 285 283 281 281 282 284 287 288 292 296 299 300 297 291 288 285 283 279 272 253 252 245 241 233 217 222 258 323 338
326 322 318 313 307 298 284 282 282 276 277 279 279 280 284 288 284 281 280 281 284 285 288 294 298 298 297 292 288 286 281 275 268 249 242 238 241 226 229 248 263 299 321
336 337 335 332 326 314 293 289 293 293 296 291 286 282 283 285 283 279 277 277 280 281 286 289 293 297 297 299 296 284 279 278 273 255 244 242 245 238 246 253 271 300 313
350 349 347 345 341 332 306 296 277 266 266 269 282 288 290 289 285 282 278 275 275 277 279 280 283 287 291 294 293 290 285 271 270 261 254 254 247 250 256 269 271 282 302
356 357 355 352 349 343 328 308 297 289 281 282 287 284 283 284 284 284 278 276 274 273 272 272 275 277 277 276 284 272 276 255 274 269 273 274 256 267 266 279 283 287 298
358 357 357 354 350 345 336 325 312 300 289 284 298 291 286 289 286 282 279 275 272 270 271 269 270 270 272 272 268 274 259 263 283 276 266 265 272 280 283 284 284 289 294
351 355 357 354 351 344 339 330 317 304 292 288 278 276 279 284 283 281 277 273 271 269 268 269 268 270 268 268 261 259 267 266 266 265 276 263 271 271 283 286 286 292 294
13 10 6 1 356 350 339 332 321 310 304 292 281 280 282 284 283 279 276 272 269 268 267 265 264 265 266 267 267 262 262 264 262 257 265 273 275 273 274 274 280 289 296
Wind_Speed_850mb
5 8 3 7 11 11 11 11 14 14 12 19 12 3 8 14 11 8 10 13 16 18 19 19 19 19 19 17 13 11 10 9 10 10 14 12 15 16 6 2 5 8 3
9 6 4 5 10 11 10 11 11 15 20 13 4 11 14 14 13 12 13 15 16 17 18 18 18 18 17 15 13 10 6 5 5 7 11 18 18 12 9 7 4 2 3
9 4 4 4 8 10 11 12 15 21 21 8 8 15 16 14 13 13 13 14 17 19 19 18 17 16 15 14 12 9 5 2 2 6 14 14 22 16 16 14 11 9 7
9 6 1 3 9 14 20 22 14 8 9 10 11 15 15 15 11 12 13 14 16 17 18 17 17 16 16 14 12 10 7 3 1 6 10 10 19 17 13 16 14 14 14
11 9 8 2 9 20 21 17 10 4 2 2 3 6 11 14 14 13 12 12 13 15 16 16 17 16 15 14 13 10 7 4 3 8 11 12 25 25 21 18 19 18 17
5 8 10 4 13 18 11 7 2 4 5 6 7 6 9 12 16 15 13 13 14 15 17 17 17 17 16 16 14 14 11 8 7 8 10 21 17 21 19 18 17 17 18
6 7 12 15 21 18 10 3 4 6 9 10 10 9 5 11 14 13 13 14 15 16 18 19 19 19 18 18 16 14 12 11 12 11 12 19 18 19 19 16 16 16 16
11 10 13 15 8 5 7 8 11 13 13 12 12 12 12 10 10 12 15 16 16 17 17 19 20 20 20 19 18 16 13 12 16 12 13 20 17 19 21 18 17 17 17
20 22 15 14 13 9 13 15 15 19 17 17 15 11 11 13 11 11 14 19 19 20 20 21 22 22 22 21 20 18 16 15 17 11 21 18 17 18 21 17 15 17 16
9 8 7 15 9 13 18 24 25 20 17 18 21 17 14 14 16 15 13 18 21 22 23 24 25 25 23 23 21 19 18 17 17 15 19 15 15 17 18 16 14 15 16
11 12 15 14 17 17 16 17 20 17 14 11 10 12 17 17 18 19 18 19 22 24 25 25 26 26 25 23 20 19 18 17 17 17 17 14 13 14 14 14 13 16 15
13 19 14 13 18 22 21 21 18 18 15 14 14 16 17 17 20 22 21 20 22 24 26 27 27 26 25 25 23 19 18 17 19 18 15 13 13 13 13 11 13 14 14
20 22 26 24 23 26 25 25 23 21 19 20 21 22 20 21 22 24 23 23 26 26 28 28 28 28 26 24 22 21 19 18 18 21 17 14 13 8 5 7 11 12 12
13 19 27 26 25 26 28 26 26 24 23 24 24 23 23 24 23 24 26 26 27 28 28 29 29 28 25 23 21 20 20 19 20 22 20 16 13 9 12 13 12 11 12
9 12 26 26 25 26 26 28 27 27 27 27 28 26 27 27 27 27 27 28 28 27 28 28 28 27 26 24 23 22 21 20 20 22 21 19 18 19 17 12 11 8 9
11 16 19 29 29 30 30 31 32 33 33 32 33 32 30 30 30 30 29 29 30 29 29 28 28 27 25 24 22 23 22 22 20 20 21 18 16 15 14 10 5 5 7
16 17 18 28 35 35 34 35 35 34 36 35 37 35 33 33 33 32 32 31 31 30 30 30 29 27 26 25 24 25 22 22 22 19 23 19 18 16 13 8 1 4 8
19 22 25 27 34 39 37 38 40 39 37 38 39 38 36 35 36 35 34 35 32 31 31 30 29 28 26 25 25 24 26 24 23 22 22 23 22 17 16 9 1 5 11
21 25 28 29 30 33 40 40 42 41 41 38 39 40 39 39 38 38 39 38 35 33 33 31 30 31 29 28 28 27 26 25 24 24 24 25 24 19 17 14 5 6 12
25 27 30 32 33 30 34 44 45 43 44 42 42 41 42 43 42 43 42 42 39 37 34 33 32 30 30 29 28 28 27 25 28 28 24 24 23 25 20 13 13 16 20
29 34 36 36 34 30 29 40 40 38 42 43 44 41 42 42 44 44 44 44 42 39 36 34 32 30 27 27 27 24 24 24 29 29 35 31 25 28 32 31 23 23 30
35 36 37 36 35 32 28 33 32 35 33 34 44 49 47 45 44 46 47 47 45 42 38 35 31 28 25 23 20 22 14 19 23 26 32 35 37 31 31 29 36 38 40
36 38 39 39 39 37 33 35 38 41 41 47 51 52 50 48 46 46 47 48 47 45 39 37 34 31 28 24 22 17 11 9 14 18 19 23 31 35 37 38 40 45 50
42 43 43 44 45 43 40 38 38 38 41 38 39 45 53 50 47 47 48 48 47 46 44 40 39 37 35 31 28 26 25 31 13 12 21 24 25 33 39 41 45 49 48
43 49 48 48 47 49 46 43 44 44 45 43 44 54 59 56 51 50 51 51 51 50 47 45 41 40 37 35 30 31 33 31 30 30 37 33 25 27 33 42 50 56 53
48 54 59 61 59 56 55 52 49 51 52 52 52 57 59 58 56 55 54 53 53 52 48 44 41 38 35 34 34 32 34 32 26 21 29 41 48 54 55 57 59 60 56
Wind_Direction_850mb
111 321 218 187 172 160 168 176 176 170 157 154 165 147 337 335 344 347 345 347 354 2 5 8 7 6 5 6 15 32 51 62 72 78 66 46 37 57 49 358 35 46 5
107 323 255 200 178 166 171 172 178 171 146 138 352 335 332 334 332 327 332 339 344 353 358 6 7 5 4 6 3 9 29 54 68 51 29 9 327 354 18 20 347 301 350
126 358 209 222 178 166 161 155 147 152 120 77 359 335 328 328 323 315 322 330 337 345 351 357 4 4 3 3 1 2 359 41 98 104 78 353 329 309 297 306 322 332 288
68 127 236 155 170 159 147 143 137 98 87 80 37 9 346 318 306 304 311 322 331 337 343 348 357 357 360 1 1 359 347 344 204 208 221 171 305 302 290 290 293 292 285
126 130 113 169 160 154 162 161 156 143 103 357 28 24 355 324 310 302 302 313 327 335 339 347 346 346 349 350 356 355 347 335 256 243 268 228 249 292 307 301 294 287 277
154 147 135 166 168 184 183 202 205 297 318 323 307 325 341 331 321 316 316 321 325 330 336 341 339 340 338 338 341 341 339 327 293 282 264 266 265 284 298 306 304 295 285
166 164 163 171 160 183 207 289 287 293 300 295 289 304 311 313 315 314 314 319 326 329 332 333 333 334 334 336 334 329 321 313 299 295 278 279 294 298 302 307 306 302 295
215 195 186 190 242 261 284 287 290 296 294 292 294 309 307 298 305 316 319 317 320 323 324 326 326 327 327 328 326 325 316 299 291 295 283 279 292 290 298 305 307 299 296
181 184 212 213 270 286 294 289 296 298 285 289 284 300 302 297 301 313 322 323 324 326 328 326 326 324 324 322 320 318 311 303 294 280 266 298 293 289 298 308 307 304 301
171 190 233 285 265 279 297 315 297 287 301 298 292 284 282 300 304 309 319 319 317 319 321 322 323 321 318 315 312 310 305 295 285 279 278 285 279 284 295 300 302 302 307
251 259 275 278 296 298 307 311 303 300 295 310 296 289 291 298 305 304 309 311 313 317 319 320 319 316 314 310 304 302 299 293 284 277 290 284 279 282 287 295 294 297 307
269 271 280 274 287 291 299 299 300 297 293 281 269 275 283 289 290 293 298 304 309 314 315 317 318 316 316 312 312 305 298 291 284 282 284 279 270 269 279 273 275 293 306
272 272 283 294 294 305 303 298 296 290 286 278 278 276 283 285 285 290 300 306 311 314 318 318 317 316 312 310 307 303 296 288 281 281 286 279 270 262 150 233 296 298 302
308 301 285 292 301 306 306 302 304 297 292 286 287 289 286 284 289 295 301 306 310 313 315 316 316 313 310 307 299 295 292 287 287 282 281 279 263 197 220 276 297 304 311
292 299 300 300 301 302 300 299 295 293 288 289 289 286 286 289 292 294 298 301 303 306 309 311 311 308 308 303 298 293 289 285 278 273 276 268 250 245 259 278 289 303 320
307 310 302 298 296 298 298 294 292 289 288 287 286 284 282 283 285 286 289 293 297 303 305 307 305 303 300 296 293 291 288 285 278 269 264 260 253 244 246 261 286 333 350
254 265 278 292 299 300 296 292 290 290 288 286 282 282 282 281 281 282 284 287 293 299 300 301 301 300 297 291 290 289 287 282 275 261 258 254 247 237 232 209 241 359 359
300 300 299 294 293 298 294 290 290 288 286 284 284 286 283 280 279 280 282 286 293 293 296 299 300 299 293 288 285 283 287 284 274 262 244 251 251 224 210 193 188 345 353
326 320 316 309 302 290 293 286 281 279 282 282 282 285 285 283 281 281 282 284 287 288 292 296 299 300 297 291 288 285 283 279 272 253 252 245 241 233 217 222 258 323 338
326 322 318 313 307 298 284 282 282 276 277 279 279 280 284 288 284 281 280 281 284 285 288 294 298 298 297 292 288 286 281 275 268 249 242 238 241 226 229 248 263 299 321
336 337 335 332 326 314 293 289 293 293 296 291 286 282 283 285 283 279 277 277 280 281 286 289 293 297 297 299 296 284 279 278 273 255 244 242 245 238 246 253 271 300 313
350 349 347 345 341 332 306 296 277 266 266 269 282 288 290 289 285 282 278 275 275 277 279 280 283 287 291 294 293 290 285 271 270 261 254 254 247 250 256 269 271 282 302
356 357 355 352 349 343 328 308 297 289 281 282 287 284 283 284 284 284 278 276 274 273 272 272 275 277 277 276 284 272 276 255 274 269 273 274 256 267 266 279 283 287 298
358 357 357 354 350 345 336 325 312 300 289 284 298 291 286 289 286 282 279 275 272 270 271 269 270 270 272 272 268 274 259 263 283 276 266 265 272 280 283 284 284 289 294
351 355 357 354 351 344 339 330 317 304 292 288 278 276 279 284 283 281 277 273 271 269 268 269 268 270 268 268 261 259 267 266 266 265 276 263 271 271 283 286 286 292 294
13 10 6 1 356 350 339 332 321 310 304 292 281 280 282 284 283 279 276 272 269 268 267 265 264 265 266 267 267 262 262 264 262 257 265 273 275 273 274 274 280 289 296